Tracking 20369 objects as of 18-Feb-2020
HD Live streaming from Space Station
objects crossing your sky now

OSCAR 24

Track OSCAR 24 now!
10-day predictions
OSCAR 24 is classified as:


NORAD ID: 15936
Int'l Code: 1985-066B
Perigee: 1,006.5 km
Apogee: 1,259.6 km
Inclination: 90.1 °
Period: 107.8 minutes
Semi major axis: 7504 km
RCS: 1.6504 m2 (large)
Launch date: August 3, 1985
Source: United States (US)
Launch site: AIR FORCE WESTERN TEST RANGE (AFWTR)
aabbcc
Your satellite tracking list
Your tracking list is empty




NASA's NSSDC Master Catalog

Two Line Element Set (TLE):
1 15936U 85066B   20048.56670396  .00000027  00000-0  36465-4 0  9992
2 15936  90.1413  56.6625 0168650 323.8178 150.7354 13.35550432682969
Source of the keplerian elements: AFSPC